Location: Doverdale
(52.2833°N, 2.2000°W)
Time: 03:39:24
(UTC+00:00)

MOS 1 Rocket - Pass Details

Date: 29 October 2020
Orbit: 615 x 829 km, 97.4° (Epoch: 27 November)

Event Time Altitude Azimuth Distance (km) Brightness Sun altitude
Rises 19:39:05 0° 10° (N) 3,024 6.6 -27.1°
Reaches altitude 10° 19:41:17 10° 7° (N) 2,135 5.9 -27.4°
Maximum altitude 19:45:52 58° 289° (WNW) 833 3.9 -28.1°
Drops below altitude 10° 19:50:43 10° 211° (SSW) 2,253 6.1 -28.8°
Sets 19:53:06 0° 208° (SSW) 3,207 6.9 -29.2°
